Location: Łódź
(51.7951°N, 19.4477°E)
Time: 02:34:05
(UTC+01:00)

ISS - Pass Details

Date: 30 January 2019
Orbit: 403 x 411 km, 51.6° (Epoch: 17 February)

Event Time Altitude Azimuth Distance (km) Brightness Sun altitude
Rises 19:02:02 0° 274° (W) 2,338 1.5 -24.0°
Reaches altitude 10° 19:04:07 10° 274° (W) 1,478 0.1 -24.3°
Enters shadow 19:06:10 35° 273° (W) 686 -2.2 -24.6°
